Regional Weather Roundup
Issued by NWS

Home | Current Version | Previous Version | Graphics & Text | Print | Product List | Glossary On
Versions: 1 2 3 4 5 6 7 8 9 10 11 12 13 14 15 16 17 18 19 20 21 22 23 24 25 26 27 28 29 30 31 32 33 34 35 36 37 38 39 40 41 42 43 44 45 46 47 48 49 50
000
ASUS43 KMKX 250710
RWRWI

WISCONSIN REGIONAL WEATHER ROUNDUP
NATIONAL WEATHER SERVICE MILWAUKEE/SULLIVAN WI
200 AM CDT FRI JUL 25 2014

NOTE: "FAIR" INDICATES FEW OR NO CLOUDS BELOW 12,000 FEET WITH NO
SIGNIFICANT WEATHER AND/OR OBSTRUCTIONS TO VISIBILITY.

WIZ001-002-006>008-014>016-023>028-250800-
NORTHWEST WISCONSIN

CITY           SKY/WX    TMP DP  RH WIND       PRES   REMARKS
SUPERIOR ARPT  MOCLDY    58  56  94 CALM      29.88F
ASHLAND        CLOUDY    61  59  93 CALM      29.93F
HAYWARD        MOCLDY    66  59  78 S5        29.92F
SIREN          CLOUDY    66  59  77 S6        29.89F
RICE LAKE      PTCLDY    65  58  79 S5        29.94F
LADYSMITH      PTCLDY    64  58  78 S5        29.97F
EAU CLAIRE     MOCLDY    67  60  78 S8        29.93F
MENOMONIE      MOSUNNY   66  60  83 S6        29.93F
NEW RICHMOND   CLOUDY    65  59  81 SE5       29.89F
OSCEOLA        CLOUDY    66  62  85 SE6       29.91F
$$

WIZ003>005-009-010-017-018-250800-
NORTH CENTRAL WISCONSIN

CITY           SKY/WX    TMP DP  RH WIND       PRES   REMARKS
WOODRUFF       CLOUDY    63  56  78 CALM      29.98F
RHINELANDER    CLOUDY    62  53  72 S3        29.99F
EAGLE RIVER    CLOUDY    61  53  75 CALM      29.98F
LAND O LAKES   CLOUDY    56  55  97 CALM      30.00S
PHILLIPS       CLOUDY    64  56  76 S5        29.97S
TOMAHAWK       CLOUDY    59  55  86 CALM      29.98F
MEDFORD        CLOUDY    64  58  80 S7        29.98F
MERRILL        CLOUDY    58  58  97 CALM      29.98F
$$

WIZ029-030-035-036-043>047-250800-
CENTRAL WISCONSIN

CITY           SKY/WX    TMP DP  RH WIND       PRES   REMARKS
WAUSAU         CLOUDY    66  58  75 S5        29.97F
MOSINEE        RAIN      64  59  82 S8        30.00F
MARSHFIELD     CLOUDY    64  58  80 S8        29.98F
STEVENS POINT  CLOUDY    64  55  73 S7        30.00F
WAUPACA        CLOUDY    64  54  71 S3        30.01F
WAUTOMA        CLOUDY    62  56  81 S7        30.02F
WISC RAPIDS    CLOUDY    65  58  78 S7        30.00F
CAMP DOUGLAS   PTCLDY    63  60  93 S7        29.99F
$$

WIZ011>013-019>022-031-037>040-048>050-250800-
NORTHEAST WISCONSIN

CITY           SKY/WX    TMP DP  RH WIND       PRES   REMARKS
ANTIGO         CLOUDY    58  56  92 CALM      30.01F
STURGEON BAY   MOCLDY    61  43  51 S10       30.00F
GREEN BAY      CLOUDY    62  46  55 S7        30.01F
MANITOWOC      CLOUDY    64  44  48 SW8       30.02F
APPLETON       CLOUDY    61  45  55 SW9       30.02S
CLINTONVILLE   CLOUDY    63  50  63 S6        30.01S
OSHKOSH        MOCLDY    61  48  62 S12       30.02S
$$

WIZ032>034-041-042-053>061-250800-
SOUTHWEST WISCONSIN

CITY           SKY/WX    TMP DP  RH WIND       PRES   REMARKS
LA CROSSE      CLEAR     66  60  81 SE6       29.95F
SPARTA         PTCLDY    57  55  93 CALM      29.99F
VIROQUA        FAIR      63  59  87 S6        30.01F
BOSCOBEL       CLEAR     60  57  89 CALM      30.00F
PRAIRIE DU CHI CLEAR     63  57  83 E3        29.99F
PLATTEVILLE    FAIR      61  56  85 SE8       30.04F
$$

WIZ056-057-062-063-064-067-068-250800-
SOUTH CENTRAL WISCONSIN

CITY           SKY/WX    TMP DP  RH WIND       PRES   REMARKS
BARABOO/DELLS  PTCLDY    62  54  74 SW5       30.02F
LONE ROCK      CLEAR     62  56  80 E6        30.01F
WATERTOWN      PTCLDY    55  48  76 CALM      30.06S
MADISON        CLOUDY    64  55  72 S10       30.05F
MIDDLETON      PTSUNNY   63  56  77 SE6       30.05S
MONROE         CLEAR     59  54  82 S7        30.05F
JANESVILLE     CLEAR     59  46  63 CALM      30.06S
$$

WIZ051-052-058>065-066-070>072-250800-
SOUTHEAST WISCONSIN

CITY           SKY/WX    TMP DP  RH WIND       PRES   REMARKS
MILWAUKEE      PTCLDY    60  46  59 S5        30.06R
WAUKESHA       CLEAR     55  45  67 SW5       30.07S
MILWAUKEE/TIMM CLEAR     57  43  58 CALM      30.06S
RACINE         MOCLDY    58  51  78 SW5       30.08R
BURLINGTON     CLEAR     48  47  96 SW3       30.07R
KENOSHA        CLEAR     53  48  83 SW3       30.07R
FOND DU LAC    MOCLDY    59  46  62 SW8       30.04S
SHEBOYGAN      MOCLDY    57  47  69 SW6       30.04F
WEST BEND      MOCLDY    55  43  62 CALM      30.05S
JUNEAU         MOCLDY    57  44  62 S3        30.07S
$$

LSZ147-162-250800-
LAKE SUPERIOR

STATION/POSITION TIME  TEMP    WIND        PRES    WAVE
                       AIR SEA DIR/SP/G            HT/PER
                 (UTC) (F)     (DEG/KT/KT) (MB)    (FT/S)
$$

LMZ867-665-643>646-250800-
LAKE MICHIGAN

STATION/POSITION TIME  TEMP    WIND        PRES    WAVE
                       AIR SEA DIR/SP/G            HT/PER
                 (UTC) (F)     (DEG/KT/KT) (MB)    (FT/S)
$$

TC  - TEMPERATURE IN CELSIUS
VSB - VISIBILITY IN STATUTE MILES
WCI - WIND CHILL INDEX
HX  - HEAT INDEX




USA.gov is the U.S. government's official web portal to all federal, state and local government web resources and services.